FW1460 Weather Reports


Display with metric or nautical units.
time (UTC)temp
F
wind
direction
speed
MPH
gust
MPH
rain 1hr
in
rain 24hr
in
rain mn
in
humidity
%
barometer
mb
20260901094506 66 171 0.0 0.0 0.00 0.00 0.00 87 1015.8
20260901093003 66 171 0.0 0.0 0.00 0.00 0.00 88 1016.0
20260901091503 65 171 0.0 0.0 0.00 0.00 0.00 88 1016.0
20260901090006 65 171 0.0 0.0 0.00 0.00 0.00 87 1016.0
20260901084600 66 171 0.0 0.0 0.00 0.00 0.00 86 1016.2
20260901083057 66 171 0.0 0.0 0.00 0.00 0.00 86 1016.6
20260901081555 66 171 0.0 0.0 0.00 0.00 0.00 85 1017.0
20260901080055 66 171 0.0 1.0 0.00 0.00 0.00 85 1016.9
20260901074602 66 171 0.0 1.0 0.00 0.00 0.00 85 1016.8
20260901073053 67 171 0.0 1.0 0.00 0.00 0.00 84 1016.8
20260901071552 67 171 0.0 0.0 0.00 0.00 0.00 84 1016.7
20260901070051 66 171 0.0 0.0 0.00 0.00 0.00 84 1016.7
20260901064549 67 171 0.0 2.0 0.00 0.00 0.00 83 1016.9
20260901063048 67 171 0.0 0.0 0.00 0.00 0.00 83 1017.2
20260901061549 67 171 0.0 0.0 0.00 0.00 0.00 83 1017.2
20260901060049 67 171 0.0 1.0 0.00 0.00 0.00 83 1017.0
20260901054550 67 171 0.0 0.0 0.00 0.01 0.00 82 1017.1
20260901053052 67 171 0.0 2.0 0.00 0.01 0.00 82 1017.1
20260901051545 67 171 0.0 0.0 0.00 0.01 0.00 82 1017.1
20260901050044 67 171 0.0 0.0 0.00 0.01 0.00 82 1017.2
20260901044543 67 171 0.0 2.0 0.00 0.01 0.00 82 1017.3
20260901043041 67 171 0.0 3.0 0.00 0.01 0.00 83 1017.5
20260901041543 67 171 0.0 1.0 0.00 0.01 0.00 83 1017.7
20260901040047 67 171 0.0 1.0 0.00 0.01 0.00 83 1017.7
20260901034537 66 171 0.0 1.0 0.00 0.24 0.01 83 1017.7
20260901033036 67 171 0.0 1.0 0.00 0.24 0.01 82 1017.7
20260901031536 66 171 0.0 1.0 0.00 0.24 0.01 83 1017.6
20260901030035 67 171 0.0 2.0 0.00 0.24 0.01 82 1017.6
20260901024536 67 171 0.0 4.0 0.00 0.30 0.01 82 1017.7
20260901023034 67 171 0.0 4.0 0.00 0.30 0.01 81 1017.7
20260901021534 67 171 1.0 4.0 0.00 0.30 0.01 80 1017.9
20260901020034 67 136 0.0 1.0 0.00 0.30 0.01 79 1018.0
20260901014533 67 136 0.0 2.0 0.00 0.32 0.01 77 1018.1
20260901013050 67 146 0.0 3.0 0.00 0.32 0.01 77 1017.9
20260901011538 67 146 0.0 2.0 0.00 0.32 0.01 77 1017.9
20260901010032 67 146 0.0 4.0 0.00 0.32 0.01 77 1018.0
20260901004531 67 145 0.0 3.0 0.00 0.32 0.01 78 1017.9
20260901003032 67 147 1.0 7.0 0.00 0.32 0.01 80 1017.9
20260901001536 68 149 0.0 6.0 0.00 0.32 0.01 79 1018.0
20260901000031 68 150 1.0 7.0 0.00 0.32 0.01 79 1018.0
20260831234529 68 145 1.0 4.0 0.00 0.32 0.01 80 1018.0
20260831233029 68 148 0.0 8.0 0.00 0.32 0.01 80 1018.1
20260831231528 69 155 2.0 7.0 0.00 0.32 0.01 79 1017.9
20260831230028 69 157 2.0 6.0 0.00 0.32 0.01 78 1017.9
20260831224528 70 153 1.0 7.0 0.00 0.32 0.01 77 1018.0
20260831223031 70 148 0.0 3.0 0.00 0.32 0.01 78 1018.0
20260831221525 71 148 0.0 6.0 0.00 0.32 0.01 77 1018.0
20260831220025 71 158 0.0 5.0 0.00 0.32 0.01 77 1018.0
20260831214526 72 169 2.0 8.0 0.00 0.32 0.01 75 1018.0
20260831213026 72 134 1.0 7.0 0.00 0.32 0.01 73 1018.1
20260831211524 72 161 4.0 9.0 0.00 0.32 0.01 70 1018.0
20260831210023 73 132 3.0 8.0 0.00 0.32 0.01 69 1018.0
20260831204522 73 145 3.0 9.0 0.00 0.32 0.01 69 1017.9
20260831203027 74 142 2.0 7.0 0.00 0.32 0.01 70 1017.7
20260831201522 75 155 2.0 6.0 0.00 0.32 0.01 69 1017.9
20260831200035 75 153 0.0 6.0 0.00 0.32 0.01 70 1018.0
20260831194526 76 149 0.0 8.0 0.00 0.32 0.01 67 1018.0
20260831193020 76 80 1.0 4.0 0.00 0.32 0.01 65 1018.1
20260831191521 75 74 1.0 4.0 0.00 0.32 0.01 64 1018.1
20260831190030 75 52 0.0 3.0 0.00 0.32 0.01 63 1018.3
20260831184518 75 52 1.0 5.0 0.00 0.32 0.01 63 1018.4
20260831183018 76 349 0.0 3.0 0.00 0.32 0.01 67 1018.7
20260831181525 75 348 0.0 1.0 0.00 0.32 0.01 68 1018.5
20260831180017 75 348 0.0 6.0 0.00 0.32 0.01 64 1018.6
20260831174518 75 11 0.0 5.0 0.00 0.32 0.01 65 1018.9
20260831173015 75 128 1.0 5.0 0.00 0.32 0.01 63 1018.8
20260831171514 75 94 0.0 3.0 0.00 0.32 0.01 64 1018.9
20260831170013 75 123 0.0 5.0 0.00 0.32 0.01 65 1018.9
20260831164517 74 47 0.0 2.0 0.00 0.32 0.01 62 1019.2
20260831163015 74 53 0.0 4.0 0.00 0.32 0.01 66 1019.3
20260831161509 73 79 0.0 5.0 0.00 0.32 0.01 67 1019.4
20260831160008 73 23 2.0 6.0 0.00 0.32 0.01 68 1019.4
20260831154507 73 74 1.0 4.0 0.00 0.32 0.01 68 1019.6
20260831153005 72 24 1.0 8.0 0.00 0.32 0.01 69 1019.8
20260831151503 72 28 1.0 4.0 0.00 0.32 0.01 69 1019.8
20260831150003 72 85 0.0 4.0 0.00 0.32 0.01 73 1019.7
20260831144601 72 345 2.0 6.0 0.00 0.32 0.01 74 1019.7
20260831143101 71 11 2.0 5.0 0.00 0.32 0.01 74 1019.6
20260831141607 70 49 3.0 6.0 0.00 0.32 0.01 74 1019.6
20260831140056 70 73 1.0 5.0 0.00 0.32 0.01 75 1019.6
20260831134554 69 350 1.0 5.0 0.00 0.32 0.01 77 1019.4
20260831133052 68 71 2.0 9.0 0.00 0.32 0.01 77 1019.3
20260831131549 68 85 1.0 6.0 0.00 0.32 0.01 82 1019.3
20260831130052 67 84 1.0 5.0 0.00 0.32 0.01 83 1019.3
20260831124549 67 45 0.0 4.0 0.00 0.32 0.01 85 1019.4
20260831123046 66 45 1.0 4.0 0.00 0.32 0.01 88 1019.4
20260831121547 65 68 1.0 3.0 0.00 0.32 0.01 90 1019.2
20260831120050 65 338 0.0 3.0 0.00 0.32 0.01 91 1019.1
20260831114545 64 338 0.0 0.0 0.00 0.32 0.01 91 1019.0
20260831113048 64 338 0.0 0.0 0.00 0.32 0.01 92 1018.8
20260831111539 63 338 0.0 0.0 0.00 0.32 0.01 92 1018.6
20260831110038 63 338 0.0 0.0 0.00 0.32 0.01 92 1018.6
20260831104539 63 338 0.0 1.0 0.00 0.32 0.01 92 1018.5
20260831103039 62 338 0.0 1.0 0.00 0.32 0.01 92 1018.3
20260831101533 63 338 0.0 4.0 0.00 0.32 0.01 92 1018.1
20260831100036 62 331 0.0 4.0 0.00 0.32 0.01 92 1017.8